User: anonymous   Login
Location: Capannuccia
(43.7000°N, 11.3000°E)
Time: 11:26:16
(UTC+00:00)
Language:

CZ-2D R/B - Orbit

View from above orbital plane
View from above orbital plane
View from above satellite
View from above satellite

Ground track
Ground track

The orbit data is extracted from the following two-line orbital elements,

1 37932U 11068C   20227.10786620 -.00000011  00000-0  14839-4 0  9995
2 37932  98.6579 162.2634 0036118 298.9554  71.0590 14.22041181453294
Epoch (UTC): 14 August 2020 02:35:19
Eccentricity: 0.0036118
inclination: 98.6579°
perigee height: 792 km
apogee height: 844 km
right ascension of ascending node: 162.2634°
argument of perigee: 298.9554°
revolutions per day: 14.22041181
mean anomaly at epoch: 71.0590°
orbit number at epoch: 45329

The dashed part of the orbit path shows where the satellite is in the earth's shadow,  

DLR